N0MR Weather Reports


time (UTC)temp
C
wind
direction
speed
KPH
gust
KPH
rain 1hr
cm
rain 24hr
cm
rain mn
cm
humidity
%
barometer
mb
20260905121927 14 327 0.0 3.2 0.00 0.03 0.03 97 1016.9
20260905120930 14 327 0.0 3.2 0.00 0.03 0.03 97 1016.9
20260905115930 13 328 0.0 0.0 0.00 0.03 0.03 97 1016.8
20260905114932 13 328 0.0 0.0 0.00 0.03 0.03 97 1016.8
20260905113928 13 263 0.0 0.0 0.00 0.03 0.03 97 1016.8
20260905111929 13 265 0.0 4.8 0.00 0.03 0.03 97 1016.8
20260905110928 13 265 0.0 4.8 0.00 0.03 0.03 97 1016.8
20260905105929 13 277 0.0 1.6 0.00 0.03 0.03 97 1016.8
20260905104931 13 277 0.0 1.6 0.00 0.03 0.03 97 1016.8
20260905103928 13 277 0.0 1.6 0.00 0.03 0.03 97 1016.7
20260905102929 13 277 0.0 1.6 0.00 0.03 0.03 97 1016.7
20260905101931 14 276 0.0 0.0 0.00 0.03 0.03 97 1016.9
20260905100928 14 276 0.0 0.0 0.00 0.03 0.03 97 1016.9
20260905095930 14 276 0.0 0.0 0.00 0.03 0.03 97 1017.0
20260905094929 14 276 0.0 0.0 0.00 0.03 0.03 97 1017.0
20260905093928 14 276 0.0 0.0 0.00 0.03 0.03 97 1017.0
20260905092929 14 276 0.0 0.0 0.00 0.03 0.03 97 1017.0
20260905091929 14 276 0.0 4.8 0.00 0.03 0.03 97 1017.1
20260905085930 14 276 0.0 1.6 0.00 0.03 0.03 97 1017.2
20260905084932 15 272 0.0 0.0 0.00 0.03 0.03 97 1017.3
20260905083929 15 272 0.0 0.0 0.00 0.03 0.03 97 1017.3
20260905082929 15 272 0.0 0.0 0.00 0.03 0.03 97 1017.2
20260905081930 15 272 0.0 0.0 0.00 0.03 0.03 97 1017.2
20260905080929 15 272 0.0 0.0 0.03 0.03 0.03 97 1017.2
20260905075930 15 272 0.0 0.0 0.03 0.03 0.03 97 1017.2
20260905074929 15 272 0.0 0.0 0.03 0.10 0.03 97 1017.0
20260905073929 15 272 0.0 0.0 0.03 0.10 0.03 97 1017.0
20260905072929 15 272 0.0 0.0 0.03 1.27 0.03 97 1016.8
20260905071930 15 272 0.0 0.0 0.03 1.27 0.03 97 1016.8
20260905070929 15 272 0.0 0.0 0.00 1.30 0.00 97 1016.8
20260905065930 15 272 0.0 0.0 0.00 1.30 0.00 97 1016.8
20260905064929 15 272 0.0 3.2 0.00 1.32 0.00 97 1017.0
20260905063930 15 272 0.0 3.2 0.00 1.32 0.00 97 1017.0
20260905062940 15 272 0.0 1.6 0.00 1.35 0.00 97 1017.0
20260905061930 15 272 0.0 1.6 0.00 1.35 0.00 97 1017.0
20260905060930 15 306 0.0 1.6 0.00 1.35 0.00 97 1017.0
20260905055930 15 306 0.0 1.6 0.00 1.35 0.00 97 1017.0
20260905054933 15 306 0.0 1.6 0.00 1.35 0.00 97 1017.0
20260905053932 15 306 0.0 0.0 0.00 1.35 0.00 97 1017.0
20260905052934 15 306 0.0 0.0 0.00 1.35 0.00 97 1017.0
20260905051931 15 306 0.0 4.8 0.00 1.35 0.00 97 1016.9
20260905050931 15 306 0.0 4.8 0.00 1.35 0.00 97 1016.9
20260905045930 15 238 0.0 1.6 0.00 1.40 1.40 97 1016.8
20260905044931 15 238 0.0 1.6 0.00 1.40 1.40 97 1016.8
20260905043930 15 238 0.0 1.6 0.00 1.70 1.70 97 1016.9
20260905042941 15 238 0.0 1.6 0.00 1.70 1.70 97 1016.9
20260905041931 15 238 0.0 1.6 0.00 1.70 1.70 97 1017.1
20260905040930 15 238 0.0 1.6 0.00 1.70 1.70 97 1017.1
20260905035931 15 255 0.0 3.2 0.00 1.70 1.35 97 1017.0
20260905033930 15 290 0.0 1.6 0.00 1.70 1.70 97 1016.9
20260905032934 15 290 0.0 1.6 0.00 1.70 1.70 97 1016.9
20260905031930 15 290 0.0 3.2 0.00 1.83 1.70 97 1016.9
20260905024931 15 240 0.0 0.0 0.00 1.88 1.70 97 1016.9
20260905023931 15 240 0.0 0.0 0.00 1.88 1.70 97 1016.9
20260905022931 15 239 0.0 1.6 0.00 2.34 1.70 97 1016.7
20260905021932 15 239 0.0 1.6 0.00 2.34 1.70 97 1016.7
20260905020931 15 239 0.0 1.6 0.00 2.34 1.35 97 1016.7
20260905015931 15 239 0.0 1.6 0.00 2.34 1.35 97 1016.7
20260905000932 15 267 0.0 1.6 0.00 2.34 1.35 96 1015.8
20260904235943 15 267 0.0 1.6 0.00 2.34 1.35 96 1015.8
20260904233329 16 330 0.0 0.0 0.00 2.34 1.70 96 1015.8
20260904232330 16 330 0.0 0.0 0.00 2.34 1.70 96 1015.8
20260904231333 16 329 0.0 6.4 0.00 2.34 1.70 96 1015.7
20260904230329 16 329 0.0 6.4 0.00 2.34 1.70 96 1015.7
20260904225329 16 64 0.0 3.2 0.00 2.34 1.40 96 1015.8
20260904224331 16 64 0.0 3.2 0.00 2.34 1.40 96 1015.8
20260904223329 16 319 0.0 3.2 0.00 2.34 1.70 96 1015.5
20260904222331 16 259 0.0 1.6 0.00 2.34 1.70 95 1015.4
20260904221329 16 259 0.0 1.6 0.00 2.34 1.70 95 1015.4
20260904220330 16 275 0.0 1.6 0.00 2.34 1.40 96 1015.3
20260904215329 16 275 0.0 1.6 0.00 2.34 1.40 96 1015.3
20260904214331 17 275 0.0 0.0 0.00 2.34 1.70 95 1015.1
20260904213329 17 275 0.0 0.0 0.00 2.34 1.70 95 1015.1
20260904212329 17 275 0.0 0.0 0.00 2.34 1.70 96 1015.0
20260904211332 17 275 0.0 0.0 0.00 2.34 1.70 96 1015.0
20260904210331 17 271 0.0 1.6 0.00 2.34 1.35 96 1015.1
20260904205334 17 271 0.0 1.6 0.00 2.34 1.35 96 1015.1
20260904203333 17 270 0.0 1.6 0.00 2.34 1.70 96 1014.9
20260904202331 17 270 0.0 3.2 0.00 2.34 1.70 97 1014.7
20260904201333 17 270 0.0 3.2 0.00 2.34 1.70 97 1014.7
20260904200330 17 215 0.0 0.0 0.00 2.34 1.35 97 1014.5
20260904195340 17 215 0.0 0.0 0.00 2.34 1.35 97 1014.5
20260904194331 17 215 0.0 0.0 0.00 2.34 1.40 97 1014.5
20260904193331 17 215 0.0 0.0 0.00 2.34 1.40 97 1014.5
20260904192332 17 215 0.0 3.2 0.00 2.34 1.70 97 1014.5
20260904165332 16 65 0.0 1.6 0.00 2.34 1.40 97 1014.1
20260904152331 15 245 0.0 3.2 0.00 2.34 1.70 97 1013.4
20260904151332 15 245 0.0 3.2 0.00 2.34 1.70 97 1013.4
20260904150333 15 246 0.0 4.8 0.00 2.34 1.35 97 1013.1
20260904145332 15 246 0.0 4.8 0.00 2.34 1.35 97 1013.1
20260904144332 15 219 0.0 6.4 0.00 2.34 1.70 97 1013.0
20260904143332 15 219 0.0 6.4 0.00 2.34 1.70 97 1013.0
20260904142331 15 221 0.0 9.7 0.00 2.34 1.70 97 1012.8
20260904141332 15 221 0.0 9.7 0.00 2.34 1.70 97 1012.8
20260904140332 15 336 0.0 6.4 0.00 2.34 1.35 97 1012.5
20260904135336 15 336 0.0 6.4 0.00 2.34 1.35 97 1012.5